Location: Bluejay Creek
(37.7819°N, 119.6118°W)
Time: 22:06:43
(UTC+00:00)

DMSP B5D2-2 - Pass Details

Date: 05 August 2024
Orbit: 787 x 802 km, 98.3° (Epoch: 07 September)

Event Time Altitude Azimuth Distance (km) Brightness Sun altitude
Rises 12:06:17 0° 179° (S) 3,277 7.0 -11.3°
Reaches altitude 10° 12:08:39 10° 184° (S) 2,349 6.2 -10.9°
Maximum altitude 12:13:42 52° 260° (W) 975 4.2 -10.1°
Drops below altitude 10° 12:18:47 10° 337° (NNW) 2,357 6.6 -9.2°
Sets 12:21:10 0° 342° (NNW) 3,288 7.4 -8.8°
